Location: Haut Kerinec
(48.0623°N, 4.4081°W)
Time: 19:46:59
(UTC+00:00)

Cosmos 1606 Rocket - Pass Details

Date: 01 June 2020
Orbit: 603 x 632 km, 82.5° (Epoch: 05 July)

Event Time Altitude Azimuth Distance (km) Brightness Sun altitude
Rises 23:13:42 0° 357° (N) 2,871 8.5 -18.4°
Reaches altitude 10° 23:16:03 10° 5° (N) 1,963 7.2 -18.5°
Maximum altitude 23:20:06 38° 74° (ENE) 936 4.4 -18.6°
Enters shadow 23:21:37 29° 117° (ESE) 1,133 4.5 -18.7°
